User: anonymous   Login
Location: Unspecified
(0.0000°N, 0.0000°E)
Time: 10:38:05
(UTC+00:00)
Language:

Hubble Space Telescope - Orbit

View from above orbital plane
View from above orbital plane
View from above satellite
View from above satellite

Ground track
Ground track

The orbit data is extracted from the following two-line orbital elements,

1 20580U 90037B   18287.87027121  .00000599  00000-0  25710-4 0  9990
2 20580  28.4715  43.8971 0002792 351.9690   8.0848 15.09112136363569
Epoch (UTC): 14 October 2018 20:53:11
Eccentricity: 0.0002792
inclination: 28.4715°
perigee height: 537 km
apogee height: 541 km
right ascension of ascending node: 43.8971°
argument of perigee: 351.9690°
revolutions per day: 15.09112136
mean anomaly at epoch: 8.0848°
orbit number at epoch: 36356

The dashed part of the orbit path shows where the satellite is in the earth's shadow,  

DLR